Time,TemperatureF,DewpointF,PressureIn,WindDirection,WindDirectionDegrees,WindSpeedMPH,WindSpeedGustMPH,Humidity,HourlyPrecipIn,Conditions,Clouds,dailyrainin,SoftwareType,DateUTC
2013-02-24 00:05:00,79.3,73.0,0.00,West,271,14.0,15.0,81,0.00,,,0.00,weatherlink.com 1.10,2013-02-24 06:05:00,
2013-02-24 00:20:00,79.2,74.0,0.00,West,277,12.0,15.0,83,0.00,,,0.00,weatherlink.com 1.10,2013-02-24 06:20:00,
2013-02-24 00:36:00,79.0,74.0,0.00,West,279,11.0,13.0,83,0.00,,,0.00,weatherlink.com 1.10,2013-02-24 06:36:00,
2013-02-24 00:51:00,79.1,73.0,0.00,West,271,12.0,14.0,82,0.00,,,0.00,weatherlink.com 1.10,2013-02-24 06:51:00,
2013-02-24 01:06:00,79.2,73.0,0.00,West,269,10.0,15.0,81,0.00,,,0.00,weatherlink.com 1.10,2013-02-24 07:06:00,
2013-02-24 01:21:00,79.2,73.0,0.00,West,267,9.0,12.0,82,0.00,,,0.00,weatherlink.com 1.10,2013-02-24 07:21:00,
2013-02-24 01:36:00,79.2,73.0,0.00,West,265,7.0,11.0,82,0.00,,,0.00,weatherlink.com 1.10,2013-02-24 07:36:00,
2013-02-24 01:51:00,79.1,73.0,0.00,West,270,8.0,11.0,82,0.00,,,0.00,weatherlink.com 1.10,2013-02-24 07:51:00,
2013-02-24 02:06:00,79.0,73.0,0.00,West,277,10.0,12.0,82,0.00,,,0.00,weatherlink.com 1.10,2013-02-24 08:06:00,
2013-02-24 02:21:00,79.2,73.0,0.00,West,272,11.0,11.0,82,0.00,,,0.00,weatherlink.com 1.10,2013-02-24 08:21:00,
2013-02-24 02:36:00,79.1,73.0,0.00,West,265,8.0,11.0,82,0.00,,,0.00,weatherlink.com 1.10,2013-02-24 08:36:00,
2013-02-24 02:51:00,79.2,73.0,0.00,West,263,10.0,11.0,82,0.00,,,0.00,weatherlink.com 1.10,2013-02-24 08:51:00,
2013-02-24 03:06:00,79.2,73.0,0.00,West,267,9.0,11.0,82,0.00,,,0.00,weatherlink.com 1.10,2013-02-24 09:06:00,
2013-02-24 03:21:00,79.2,74.0,0.00,West,269,8.0,11.0,83,0.00,,,0.00,weatherlink.com 1.10,2013-02-24 09:21:00,
2013-02-24 03:36:00,79.2,73.0,0.00,West,263,10.0,12.0,82,0.00,,,0.00,weatherlink.com 1.10,2013-02-24 09:36:00,
2013-02-24 03:52:00,79.2,74.0,0.00,West,260,11.0,12.0,83,0.00,,,0.00,weatherlink.com 1.10,2013-02-24 09:52:00,
2013-02-24 04:06:00,79.1,74.0,0.00,West,268,13.0,14.0,83,0.00,,,0.00,weatherlink.com 1.10,2013-02-24 10:06:00,
2013-02-24 04:22:00,79.3,73.0,0.00,West,268,10.0,14.0,82,0.00,,,0.00,weatherlink.com 1.10,2013-02-24 10:22:00,
2013-02-24 04:37:00,79.3,74.0,0.00,West,262,13.0,15.0,83,0.00,,,0.00,weatherlink.com 1.10,2013-02-24 10:37:00,
2013-02-24 04:52:00,79.4,74.0,0.00,West,265,13.0,15.0,83,0.00,,,0.00,weatherlink.com 1.10,2013-02-24 10:52:00,
2013-02-24 05:07:00,79.4,74.0,0.00,West,265,13.0,16.0,83,0.00,,,0.00,weatherlink.com 1.10,2013-02-24 11:07:00,
2013-02-24 05:22:00,79.4,74.0,0.00,West,272,11.0,14.0,84,0.00,,,0.00,weatherlink.com 1.10,2013-02-24 11:22:00,
2013-02-24 05:37:00,79.2,74.0,0.00,West,268,11.0,14.0,84,0.00,,,0.00,weatherlink.com 1.10,2013-02-24 11:37:00,
2013-02-24 05:52:00,79.1,74.0,0.00,West,273,13.0,14.0,83,0.00,,,0.00,weatherlink.com 1.10,2013-02-24 11:52:00,
2013-02-24 06:07:00,79.1,74.0,0.00,West,265,14.0,16.0,83,0.00,,,0.00,weatherlink.com 1.10,2013-02-24 12:07:00,
2013-02-24 06:22:00,79.2,74.0,0.00,West,268,14.0,16.0,83,0.00,,,0.00,weatherlink.com 1.10,2013-02-24 12:22:00,
2013-02-24 06:37:00,79.4,74.0,0.00,West,269,15.0,19.0,83,0.00,,,0.00,weatherlink.com 1.10,2013-02-24 12:37:00,
2013-02-24 06:52:00,79.8,74.0,0.00,West,275,17.0,18.0,82,0.00,,,0.00,weatherlink.com 1.10,2013-02-24 12:52:00,
2013-02-24 07:07:00,79.9,74.0,0.00,West,280,16.0,20.0,81,0.00,,,0.00,weatherlink.com 1.10,2013-02-24 13:07:00,
2013-02-24 07:38:00,79.8,74.0,0.00,West,273,15.0,19.0,82,0.00,,,0.00,weatherlink.com 1.10,2013-02-24 13:38:00,
2013-02-24 07:53:00,79.8,74.0,0.00,West,272,16.0,18.0,81,0.00,,,0.00,weatherlink.com 1.10,2013-02-24 13:53:00,
2013-02-24 08:08:00,80.1,74.0,0.00,West,280,14.0,19.0,81,0.00,,,0.00,weatherlink.com 1.10,2013-02-24 14:08:00,
2013-02-24 08:23:00,80.3,73.0,0.00,West,280,19.0,21.0,79,0.00,,,0.00,weatherlink.com 1.10,2013-02-24 14:23:00,
2013-02-24 08:38:00,80.5,73.0,0.00,West,260,18.0,19.0,79,0.00,,,0.00,weatherlink.com 1.10,2013-02-24 14:38:00,
2013-02-24 08:53:00,80.9,74.0,0.00,West,281,16.0,21.0,79,0.00,,,0.00,weatherlink.com 1.10,2013-02-24 14:53:00,
2013-02-24 09:08:00,80.8,73.0,0.00,West,279,16.0,19.0,78,0.00,,,0.00,weatherlink.com 1.10,2013-02-24 15:08:00,
2013-02-24 09:38:00,81.2,73.0,0.00,West,276,16.0,18.0,75,0.00,,,0.00,weatherlink.com 1.10,2013-02-24 15:38:00,
2013-02-24 09:53:00,81.2,73.0,0.00,West,267,13.0,18.0,76,0.00,,,0.00,weatherlink.com 1.10,2013-02-24 15:53:00,
2013-02-24 10:08:00,81.2,73.0,0.00,West,268,14.0,16.0,77,0.00,,,0.00,weatherlink.com 1.10,2013-02-24 16:08:00,
2013-02-24 10:23:00,81.2,74.0,0.00,West,266,11.0,17.0,78,0.00,,,0.00,weatherlink.com 1.10,2013-02-24 16:23:00,
2013-02-24 10:39:00,81.1,73.0,0.00,West,269,13.0,17.0,76,0.00,,,0.00,weatherlink.com 1.10,2013-02-24 16:39:00,
2013-02-24 10:54:00,81.2,73.0,0.00,West,265,14.0,18.0,75,0.00,,,0.00,weatherlink.com 1.10,2013-02-24 16:54:00,
2013-02-24 11:09:00,81.4,73.0,0.00,West,270,17.0,18.0,76,0.00,,,0.00,weatherlink.com 1.10,2013-02-24 17:09:00,
2013-02-24 11:24:00,81.4,73.0,0.00,West,271,14.0,19.0,75,0.00,,,0.00,weatherlink.com 1.10,2013-02-24 17:24:00,
2013-02-24 11:39:00,81.7,73.0,0.00,West,273,14.0,17.0,74,0.00,,,0.00,weatherlink.com 1.10,2013-02-24 17:39:00,
2013-02-24 11:54:00,81.7,73.0,0.00,West,267,15.0,15.0,75,0.00,,,0.00,weatherlink.com 1.10,2013-02-24 17:54:00,
2013-02-24 12:09:00,81.6,73.0,0.00,West,269,11.0,15.0,76,0.00,,,0.00,weatherlink.com 1.10,2013-02-24 18:09:00,
2013-02-24 12:24:00,81.4,74.0,0.00,West,270,13.0,14.0,77,0.00,,,0.00,weatherlink.com 1.10,2013-02-24 18:24:00,
2013-02-24 12:39:00,81.6,73.0,0.00,West,275,15.0,17.0,76,0.00,,,0.00,weatherlink.com 1.10,2013-02-24 18:39:00,
2013-02-24 13:09:00,81.6,74.0,0.00,West,267,14.0,18.0,77,0.00,,,0.00,weatherlink.com 1.10,2013-02-24 19:09:00,
2013-02-24 13:24:00,81.5,74.0,0.00,West,265,16.0,18.0,77,0.00,,,0.00,weatherlink.com 1.10,2013-02-24 19:24:00,
2013-02-24 13:39:00,81.7,73.0,0.00,West,280,14.0,19.0,76,0.00,,,0.00,weatherlink.com 1.10,2013-02-24 19:39:00,
2013-02-24 13:54:00,81.8,74.0,0.00,West,280,17.0,20.0,76,0.00,,,0.00,weatherlink.com 1.10,2013-02-24 19:54:00,
2013-02-24 14:09:00,81.8,74.0,0.00,West,281,16.0,21.0,76,0.00,,,0.00,weatherlink.com 1.10,2013-02-24 20:09:00,
2013-02-24 14:24:00,81.8,73.0,0.00,WNW,284,16.0,19.0,74,0.00,,,0.00,weatherlink.com 1.10,2013-02-24 20:24:00,
2013-02-24 14:39:00,81.8,74.0,0.00,WNW,291,12.0,17.0,76,0.00,,,0.00,weatherlink.com 1.10,2013-02-24 20:39:00,
2013-02-24 14:55:00,82.0,73.0,0.00,WNW,293,13.0,16.0,75,0.00,,,0.00,weatherlink.com 1.10,2013-02-24 20:55:00,
2013-02-24 15:10:00,82.0,73.0,0.00,WNW,290,13.0,17.0,74,0.00,,,0.00,weatherlink.com 1.10,2013-02-24 21:10:00,
2013-02-24 15:40:00,81.7,73.0,0.00,West,277,14.0,15.0,76,0.00,,,0.00,weatherlink.com 1.10,2013-02-24 21:40:00,
2013-02-24 15:55:00,81.5,73.0,0.00,West,280,15.0,17.0,75,0.00,,,0.00,weatherlink.com 1.10,2013-02-24 21:55:00,
2013-02-24 16:10:00,81.6,73.0,0.00,WNW,287,13.0,16.0,74,0.00,,,0.00,weatherlink.com 1.10,2013-02-24 22:10:00,
2013-02-24 16:25:00,81.6,73.0,0.00,West,279,12.0,14.0,74,0.00,,,0.00,weatherlink.com 1.10,2013-02-24 22:25:00,
2013-02-24 16:41:00,81.6,73.0,0.00,WNW,286,12.0,15.0,74,0.00,,,0.00,weatherlink.com 1.10,2013-02-24 22:41:00,
2013-02-24 16:55:00,81.5,72.0,0.00,WNW,287,11.0,15.0,73,0.00,,,0.00,weatherlink.com 1.10,2013-02-24 22:55:00,
2013-02-24 17:10:00,81.5,72.0,0.00,WNW,287,12.0,15.0,73,0.00,,,0.00,weatherlink.com 1.10,2013-02-24 23:10:00,
2013-02-24 17:25:00,81.4,72.0,0.00,West,277,12.0,15.0,73,0.00,,,0.00,weatherlink.com 1.10,2013-02-24 23:25:00,
2013-02-24 17:40:00,81.3,73.0,0.00,West,281,9.0,14.0,75,0.00,,,0.00,weatherlink.com 1.10,2013-02-24 23:40:00,
2013-02-24 17:55:00,81.1,72.0,0.00,West,281,12.0,14.0,74,0.00,,,0.00,weatherlink.com 1.10,2013-02-24 23:55:00,
2013-02-24 18:10:00,80.8,73.0,0.00,WNW,283,10.0,14.0,76,0.00,,,0.00,weatherlink.com 1.10,2013-02-25 00:10:00,
2013-02-24 18:26:00,80.5,73.0,0.00,West,280,9.0,13.0,77,0.00,,,0.00,weatherlink.com 1.10,2013-02-25 00:26:00,
2013-02-24 18:41:00,80.4,73.0,0.00,West,277,10.0,12.0,78,0.00,,,0.00,weatherlink.com 1.10,2013-02-25 00:41:00,
2013-02-24 18:56:00,80.1,73.0,0.00,WNW,287,9.0,12.0,78,0.00,,,0.00,weatherlink.com 1.10,2013-02-25 00:56:00,
2013-02-24 19:11:00,79.9,73.0,0.00,West,275,12.0,12.0,79,0.00,,,0.00,weatherlink.com 1.10,2013-02-25 01:11:00,
2013-02-24 19:26:00,79.9,74.0,0.00,West,273,9.0,12.0,81,0.00,,,0.00,weatherlink.com 1.10,2013-02-25 01:26:00,
2013-02-24 19:41:00,79.7,73.0,0.00,West,270,10.0,12.0,81,0.00,,,0.00,weatherlink.com 1.10,2013-02-25 01:41:00,
2013-02-24 19:56:00,79.7,74.0,0.00,West,270,11.0,13.0,82,0.00,,,0.00,weatherlink.com 1.10,2013-02-25 01:56:00,
2013-02-24 20:11:00,79.8,74.0,0.00,West,263,14.0,16.0,82,0.00,,,0.00,weatherlink.com 1.10,2013-02-25 02:11:00,
2013-02-24 20:26:00,79.8,74.0,0.00,West,261,15.0,20.0,83,0.00,,,0.00,weatherlink.com 1.10,2013-02-25 02:26:00,
2013-02-24 20:41:00,79.6,73.0,0.00,West,264,20.0,21.0,81,0.00,,,0.00,weatherlink.com 1.10,2013-02-25 02:41:00,
2013-02-24 20:56:00,79.7,73.0,0.00,West,264,17.0,23.0,81,0.00,,,0.00,weatherlink.com 1.10,2013-02-25 02:56:00,
2013-02-24 21:11:00,79.6,73.0,0.00,West,268,19.0,23.0,81,0.00,,,0.00,weatherlink.com 1.10,2013-02-25 03:11:00,
2013-02-24 21:26:00,79.6,74.0,0.00,West,277,18.0,21.0,82,0.00,,,0.00,weatherlink.com 1.10,2013-02-25 03:26:00,
2013-02-24 21:42:00,79.5,73.0,0.00,West,275,17.0,21.0,81,0.00,,,0.00,weatherlink.com 1.10,2013-02-25 03:42:00,
2013-02-24 21:57:00,79.4,73.0,0.00,West,277,15.0,19.0,81,0.00,,,0.00,weatherlink.com 1.10,2013-02-25 03:57:00,
2013-02-24 22:12:00,79.2,73.0,0.00,West,279,13.0,17.0,81,0.00,,,0.00,weatherlink.com 1.10,2013-02-25 04:12:00,
2013-02-24 22:27:00,79.3,73.0,0.00,WNW,286,13.0,15.0,80,0.00,,,0.00,weatherlink.com 1.10,2013-02-25 04:27:00,
2013-02-24 22:57:00,79.4,73.0,0.00,West,273,16.0,20.0,80,0.00,,,0.00,weatherlink.com 1.10,2013-02-25 04:57:00,
2013-02-24 23:12:00,79.5,73.0,0.00,West,271,16.0,22.0,81,0.00,,,0.00,weatherlink.com 1.10,2013-02-25 05:12:00,
2013-02-24 23:27:00,79.4,74.0,0.00,West,274,16.0,21.0,82,0.00,,,0.00,weatherlink.com 1.10,2013-02-25 05:27:00,
2013-02-24 23:42:00,79.4,74.0,0.00,West,272,20.0,20.0,82,0.00,,,0.00,weatherlink.com 1.10,2013-02-25 05:42:00,
2013-02-24 23:57:00,79.4,74.0,0.00,West,273,18.0,24.0,83,0.00,,,0.00,weatherlink.com 1.10,2013-02-25 05:57:00,